Location: Nelson
(41.2830°S, 173.2830°E)
Time: 19:29:52
(UTC+12:00)

CZ-2C R/B - Pass Details

Date: 14 May 2021
Orbit: 785 x 869 km, 98.2° (Epoch: 19 June)

Event Time Altitude Azimuth Distance (km) Brightness Sun altitude
Rises 17:58:50 0° 27° (NNE) 3,450 5.8 -7.8°
Reaches altitude 10° 18:01:15 10° 31° (NNE) 2,520 5.0 -8.2°
Maximum altitude 18:06:45 57° 108° (ESE) 1,024 2.8 -9.2°
Drops below altitude 10° 18:12:16 10° 185° (S) 2,531 5.1 -10.2°
Sets 18:14:41 0° 188° (S) 3,466 5.8 -10.7°
